TimeAKST,TemperatureF,Dew PointF,Humidity,Sea Level PressureIn,VisibilityMPH,Wind Direction,Wind SpeedMPH,Gust SpeedMPH,PrecipitationIn,Events,Conditions,WindDirDegrees,DateUTC
12:16 AM,33.8,14.0,44,29.82,10.0,ENE,5.8,-,N/A,,Unknown,70,2013-03-07 09:16:00
12:36 AM,33.8,14.0,44,29.82,10.0,East,5.8,-,N/A,,Unknown,80,2013-03-07 09:36:00
12:56 AM,33.8,14.0,44,29.83,10.0,ENE,8.1,-,N/A,,Unknown,70,2013-03-07 09:56:00
1:16 AM,33.8,14.0,44,29.82,10.0,ENE,9.2,-,N/A,,Unknown,70,2013-03-07 10:16:00
1:36 AM,33.8,14.0,44,29.82,10.0,ENE,9.2,-,N/A,,Unknown,70,2013-03-07 10:36:00
1:56 AM,33.8,14.0,44,29.81,10.0,ENE,9.2,-,N/A,,Unknown,70,2013-03-07 10:56:00
2:16 AM,33.8,14.0,44,29.81,10.0,ENE,10.4,-,N/A,,Unknown,70,2013-03-07 11:16:00
2:36 AM,33.8,14.0,44,29.79,10.0,ENE,9.2,-,N/A,,Unknown,70,2013-03-07 11:36:00
2:56 AM,33.8,14.0,44,29.78,10.0,ENE,10.4,18.4,N/A,,Unknown,60,2013-03-07 11:56:00
3:16 AM,33.8,15.8,48,29.77,10.0,ENE,11.5,-,N/A,,Unknown,70,2013-03-07 12:16:00
3:36 AM,33.8,14.0,44,29.75,10.0,ENE,11.5,18.4,N/A,,Unknown,70,2013-03-07 12:36:00
3:56 AM,33.8,14.0,44,29.74,10.0,ENE,13.8,-,N/A,,Unknown,60,2013-03-07 12:56:00
4:16 AM,33.8,14.0,44,29.73,10.0,ENE,12.7,18.4,N/A,,Unknown,70,2013-03-07 13:16:00
4:36 AM,33.8,12.2,41,29.72,10.0,ENE,12.7,17.3,N/A,,Unknown,60,2013-03-07 13:36:00
4:56 AM,33.8,14.0,44,29.71,10.0,ENE,11.5,18.4,N/A,,Unknown,60,2013-03-07 13:56:00
5:16 AM,33.8,12.2,41,29.71,10.0,ENE,17.3,24.2,N/A,,Unknown,60,2013-03-07 14:16:00
5:36 AM,33.8,12.2,41,29.70,10.0,NE,13.8,21.9,N/A,,Unknown,50,2013-03-07 14:36:00
5:56 AM,33.8,12.2,41,29.70,10.0,ENE,13.8,-,N/A,,Unknown,60,2013-03-07 14:56:00
6:16 AM,33.8,12.2,41,29.70,10.0,NE,12.7,18.4,N/A,,Unknown,50,2013-03-07 15:16:00
6:36 AM,33.8,12.2,41,29.70,10.0,ENE,9.2,-,N/A,,Unknown,60,2013-03-07 15:36:00
6:56 AM,33.8,12.2,41,29.70,10.0,ENE,12.7,-,N/A,,Unknown,70,2013-03-07 15:56:00
7:16 AM,33.8,12.2,41,29.69,10.0,ENE,9.2,-,N/A,,Unknown,70,2013-03-07 16:16:00
7:36 AM,33.8,12.2,41,29.68,10.0,East,8.1,-,N/A,,Unknown,80,2013-03-07 16:36:00
7:56 AM,33.8,12.2,41,29.68,10.0,ENE,9.2,-,N/A,,Unknown,70,2013-03-07 16:56:00
8:16 AM,33.8,12.2,41,29.67,10.0,ENE,12.7,-,N/A,,Unknown,60,2013-03-07 17:16:00
8:36 AM,33.8,12.2,41,29.66,10.0,ENE,15.0,-,N/A,,Unknown,60,2013-03-07 17:36:00
8:56 AM,33.8,12.2,41,29.66,10.0,ENE,13.8,19.6,N/A,,Unknown,60,2013-03-07 17:56:00
9:16 AM,33.8,12.2,41,29.65,10.0,ENE,13.8,-,N/A,,Unknown,60,2013-03-07 18:16:00
9:36 AM,33.8,12.2,41,29.64,10.0,ENE,12.7,-,N/A,,Unknown,70,2013-03-07 18:36:00
9:56 AM,33.8,12.2,41,29.64,10.0,ENE,12.7,21.9,N/A,,Unknown,60,2013-03-07 18:56:00
10:16 AM,33.8,12.2,41,29.63,10.0,ENE,12.7,17.3,N/A,,Unknown,70,2013-03-07 19:16:00
10:36 AM,33.8,12.2,41,29.62,10.0,ENE,11.5,21.9,N/A,,Unknown,60,2013-03-07 19:36:00
10:56 AM,35.6,14.0,41,29.61,10.0,ENE,11.5,-,N/A,,Unknown,70,2013-03-07 19:56:00
11:16 AM,35.6,14.0,41,29.61,10.0,ENE,13.8,-,N/A,,Unknown,60,2013-03-07 20:16:00
11:36 AM,35.6,15.8,44,29.61,10.0,ENE,11.5,-,N/A,,Unknown,70,2013-03-07 20:36:00
11:56 AM,35.6,14.0,41,29.60,10.0,ENE,17.3,-,N/A,,Unknown,60,2013-03-07 20:56:00
12:16 PM,35.6,14.0,41,29.60,10.0,ENE,11.5,17.3,N/A,,Unknown,70,2013-03-07 21:16:00
12:36 PM,35.6,14.0,41,29.60,10.0,ENE,13.8,18.4,N/A,,Unknown,70,2013-03-07 21:36:00
12:56 PM,35.6,15.8,44,29.59,10.0,ENE,10.4,16.1,N/A,,Unknown,70,2013-03-07 21:56:00
1:16 PM,37.4,15.8,41,29.58,10.0,ENE,11.5,18.4,N/A,,Unknown,60,2013-03-07 22:16:00
1:36 PM,37.4,15.8,41,29.57,10.0,ENE,11.5,19.6,N/A,,Unknown,70,2013-03-07 22:36:00
1:56 PM,37.4,15.8,41,29.56,10.0,ENE,13.8,19.6,N/A,,Unknown,60,2013-03-07 22:56:00
2:16 PM,37.4,14.0,38,29.56,10.0,ENE,15.0,23.0,N/A,,Unknown,60,2013-03-07 23:16:00
2:36 PM,37.4,14.0,38,29.55,10.0,ENE,19.6,25.3,N/A,,Unknown,60,2013-03-07 23:36:00
2:56 PM,35.6,14.0,41,29.54,10.0,NE,17.3,21.9,N/A,,Unknown,40,2013-03-07 23:56:00
3:16 PM,35.6,14.0,41,29.52,10.0,ENE,3.5,-,N/A,,Unknown,70,2013-03-08 00:16:00
3:36 PM,39.2,14.0,36,29.52,10.0,ENE,9.2,17.3,N/A,,Unknown,70,2013-03-08 00:36:00
3:56 PM,39.2,12.2,33,29.53,10.0,ENE,18.4,27.6,N/A,,Unknown,60,2013-03-08 00:56:00
4:16 PM,39.2,12.2,33,29.53,10.0,NNE,16.1,21.9,N/A,,Unknown,30,2013-03-08 01:16:00
4:36 PM,37.4,14.0,38,29.54,10.0,NNE,11.5,17.3,N/A,,Unknown,20,2013-03-08 01:36:00
4:56 PM,37.4,14.0,38,29.54,10.0,ESE,6.9,-,N/A,,Unknown,120,2013-03-08 01:56:00
5:16 PM,39.2,19.4,45,29.54,10.0,ENE,12.7,19.6,N/A,,Unknown,70,2013-03-08 02:16:00
5:36 PM,35.6,15.8,44,29.54,10.0,NE,13.8,17.3,N/A,,Unknown,40,2013-03-08 02:36:00
5:56 PM,37.4,17.6,45,29.55,10.0,ENE,13.8,-,N/A,,Unknown,60,2013-03-08 02:56:00
6:16 PM,37.4,19.4,48,29.55,10.0,ENE,13.8,18.4,N/A,,Unknown,60,2013-03-08 03:16:00
6:36 PM,39.2,19.4,45,29.56,10.0,ENE,13.8,21.9,N/A,,Unknown,60,2013-03-08 03:36:00
6:56 PM,39.2,19.4,45,29.56,10.0,East,9.2,17.3,N/A,,Unknown,80,2013-03-08 03:56:00
7:16 PM,37.4,19.4,48,29.54,10.0,ENE,10.4,19.6,N/A,,Unknown,70,2013-03-08 04:16:00
7:36 PM,37.4,19.4,48,29.54,10.0,ENE,10.4,-,N/A,,Unknown,60,2013-03-08 04:36:00
7:56 PM,37.4,21.2,52,29.54,10.0,East,9.2,-,N/A,,Unknown,100,2013-03-08 04:56:00
8:16 PM,39.2,21.2,49,29.55,10.0,ENE,12.7,21.9,N/A,,Unknown,70,2013-03-08 05:16:00
8:36 PM,39.2,19.4,45,29.54,10.0,East,12.7,20.7,N/A,,Unknown,80,2013-03-08 05:36:00
8:56 PM,39.2,19.4,45,29.54,10.0,ENE,9.2,19.6,N/A,,Unknown,60,2013-03-08 05:56:00
9:16 PM,39.2,21.2,49,29.54,10.0,NE,8.1,17.3,N/A,,Unknown,40,2013-03-08 06:16:00
9:36 PM,39.2,21.2,49,29.54,10.0,East,12.7,19.6,N/A,,Unknown,80,2013-03-08 06:36:00
9:56 PM,39.2,21.2,49,29.54,10.0,East,11.5,19.6,N/A,,Unknown,80,2013-03-08 06:56:00
10:16 PM,39.2,21.2,49,29.55,10.0,East,11.5,23.0,N/A,,Unknown,80,2013-03-08 07:16:00
10:36 PM,39.2,21.2,49,29.55,10.0,East,12.7,25.3,N/A,,Unknown,90,2013-03-08 07:36:00
10:56 PM,39.2,21.2,49,29.56,10.0,East,6.9,-,N/A,,Unknown,100,2013-03-08 07:56:00
11:16 PM,39.2,21.2,49,29.55,10.0,East,13.8,18.4,N/A,,Unknown,90,2013-03-08 08:16:00
11:36 PM,39.2,21.2,49,29.56,10.0,East,12.7,21.9,N/A,,Unknown,100,2013-03-08 08:36:00
11:56 PM,39.2,23.0,52,29.55,10.0,East,13.8,23.0,N/A,,Unknown,90,2013-03-08 08:56:00